EW1390 Weather Reports


Display with metric or nautical units.
time (UTC)temp
F
wind
direction
speed
MPH
gust
MPH
rain 1hr
in
rain 24hr
in
rain mn
in
humidity
%
barometer
mb
20260506213052 70 303 1.0 4.0 0.00 0.00 0.00 60 1012.1
20260506211549 70 234 1.0 7.0 0.00 0.00 0.00 60 1012.4
20260506210046 69 16 0.0 4.0 0.00 0.00 0.00 62 1012.4
20260506204544 69 105 1.0 4.0 0.00 0.00 0.00 62 1012.5
20260506203045 68 17 2.0 5.0 0.00 0.00 0.00 63 1012.7
20260506201538 67 205 0.0 4.0 0.00 0.00 0.00 62 1012.8
20260506200051 68 205 0.0 5.0 0.00 0.00 0.00 63 1012.9
20260506194538 67 215 0.0 4.0 0.00 0.00 0.00 67 1013.0
20260506193033 67 232 0.0 3.0 0.00 0.00 0.00 67 1013.2
20260506191533 66 229 1.0 4.0 0.00 0.00 0.00 69 1013.3
20260506190029 66 40 0.0 6.0 0.00 0.00 0.00 69 1013.4
20260506184526 64 360 0.0 4.0 0.00 0.00 0.00 73 1013.6
20260506183025 64 316 2.0 4.0 0.00 0.00 0.00 73 1013.6
20260506181529 64 227 2.0 5.0 0.00 0.00 0.00 74 1013.6
20260506180026 63 234 1.0 5.0 0.00 0.00 0.00 77 1013.7
20260506174514 62 271 0.0 4.0 0.00 0.00 0.00 79 1013.8
20260506173010 60 341 0.0 5.0 0.00 0.00 0.00 81 1013.6
20260506171506 57 179 0.0 4.0 0.00 0.00 0.00 89 1013.7
20260506170003 55 256 0.0 2.0 0.00 0.00 0.00 95 1013.6
20260506164600 54 288 0.0 2.0 0.00 0.00 0.00 96 1013.7
20260506163103 53 24 0.0 3.0 0.00 0.00 0.00 96 1013.7
20260506161558 52 331 0.0 1.0 0.00 0.00 0.00 96 1013.7
20260506160104 51 331 0.0 0.0 0.00 0.00 0.00 96 1013.7
20260506154547 50 330 0.0 0.0 0.00 0.03 0.00 96 1013.7
20260506153044 48 330 0.0 0.0 0.00 0.03 0.00 96 1013.9
20260506151541 47 330 0.0 0.0 0.00 0.03 0.00 96 1014.1
20260506150040 46 330 0.0 0.0 0.00 0.03 0.00 96 1014.0
20260506144540 45 330 0.0 0.0 0.00 0.03 0.00 95 1014.1
20260506143038 44 330 0.0 0.0 0.00 0.03 0.00 95 1014.0
20260506141537 44 330 0.0 0.0 0.00 0.03 0.00 95 1013.9
20260506140042 44 330 0.0 0.0 0.00 0.03 0.00 95 1013.6
20260506134605 44 330 0.0 0.0 0.00 0.05 0.00 95 1013.5
20260506133032 43 330 0.0 0.0 0.00 0.05 0.00 95 1013.3
20260506131532 43 330 0.0 0.0 0.00 0.05 0.00 95 1013.3
20260506130032 43 330 0.0 0.0 0.00 0.05 0.00 95 1013.2
20260506124527 43 331 0.0 0.0 0.00 0.05 0.00 95 1013.0
20260506123026 44 330 0.0 0.0 0.00 0.05 0.00 94 1012.9
20260506121524 44 331 0.0 0.0 0.00 0.05 0.00 94 1012.9
20260506120022 44 330 0.0 0.0 0.00 0.05 0.00 94 1012.8
20260506114531 44 330 0.0 0.0 0.00 0.05 0.00 94 1012.8
20260506113019 44 330 0.0 0.0 0.00 0.05 0.00 94 1012.7
20260506111517 44 331 0.0 0.0 0.00 0.05 0.00 94 1012.7
20260506110017 45 331 0.0 0.0 0.00 0.05 0.00 94 1012.6
20260506104514 45 330 0.0 0.0 0.00 0.06 0.00 94 1012.6
20260506103021 45 330 0.0 0.0 0.00 0.06 0.00 94 1012.6
20260506101511 46 330 0.0 0.0 0.00 0.06 0.00 94 1012.4
20260506100009 46 330 0.0 0.0 0.00 0.06 0.00 94 1012.3
20260506094514 46 330 0.0 0.0 0.00 0.06 0.00 94 1012.2
20260506093006 47 331 0.0 0.0 0.00 0.06 0.00 94 1012.0
20260506091504 47 330 0.0 0.0 0.00 0.06 0.00 94 1012.0
20260506090005 47 330 0.0 0.0 0.00 0.06 0.00 94 1011.9
20260506084502 47 331 0.0 1.0 0.00 0.09 0.00 94 1011.8
20260506083004 48 331 0.0 2.0 0.00 0.09 0.00 94 1011.9
20260506081559 48 302 0.0 0.0 0.00 0.09 0.00 94 1012.0
20260506080103 48 302 0.0 0.0 0.00 0.09 0.00 94 1012.1
20260506073055 47 302 0.0 0.0 0.00 0.11 0.00 94 1012.6
20260506071553 47 302 0.0 0.0 0.00 0.11 0.00 93 1012.1
20260506061542 49 302 0.0 0.0 0.00 0.14 0.11 92 1011.2
20260506044538 51 302 0.0 0.0 0.00 0.14 0.11 91 1010.5
20260506043032 52 302 0.0 0.0 0.00 0.14 0.11 91 1010.3
20260506041537 53 302 0.0 0.0 0.00 0.14 0.11 91 1010.2
20260506040030 53 302 0.0 0.0 0.00 0.14 0.11 91 1010.2
20260506034528 53 302 0.0 0.0 0.00 0.14 0.11 91 1009.9
20260506033026 54 302 0.0 0.0 0.00 0.14 0.11 90 1009.6
20260506031529 54 302 0.0 0.0 0.00 0.14 0.11 89 1009.4
20260506030024 55 302 0.0 0.0 0.00 0.14 0.11 89 1009.2
20260506024535 55 302 0.0 0.0 0.00 0.15 0.11 89 1009.3
20260506023022 55 302 0.0 0.0 0.00 0.15 0.11 88 1009.3
20260506021520 55 302 0.0 1.0 0.00 0.15 0.11 86 1009.1
20260506020021 55 302 0.0 2.0 0.00 0.15 0.11 87 1009.0
20260506014522 55 302 0.0 1.0 0.00 0.15 0.11 87 1009.0
20260506013020 56 302 0.0 0.0 0.00 0.15 0.11 87 1009.0
20260506011541 55 302 0.0 2.0 0.00 0.15 0.11 86 1009.1
20260506010018 55 302 0.0 1.0 0.00 0.15 0.11 88 1009.0
20260506004515 55 303 0.0 2.0 0.00 0.15 0.11 88 1009.0
20260506003017 55 303 0.0 1.0 0.00 0.15 0.11 89 1009.0
20260506001512 54 303 0.0 1.0 0.00 0.15 0.11 90 1009.0
20260506000016 54 303 0.0 1.0 0.00 0.15 0.11 90 1009.0
20260505234529 54 303 0.0 2.0 0.00 0.15 0.11 90 1008.9
20260505233011 54 229 0.0 1.0 0.00 0.15 0.11 89 1008.8
20260505231510 54 229 0.0 0.0 0.00 0.15 0.11 89 1008.8
20260505230010 54 229 0.0 0.0 0.00 0.15 0.11 90 1008.7
20260505224509 54 229 0.0 3.0 0.00 0.15 0.11 90 1008.7
20260505223008 54 210 0.0 1.0 0.00 0.15 0.11 90 1008.8
20260505221507 54 210 0.0 0.0 0.00 0.15 0.11 91 1008.8
20260505220005 54 210 0.0 0.0 0.00 0.15 0.11 91 1008.9
20260505214509 54 210 0.0 1.0 0.00 0.19 0.11 91 1008.9